Regional Weather Roundup
Issued by NWS Sterling, VA

Home | Current Version | Previous Version | Graphics & Text | Print | Product List | Glossary On
Versions: 1 2 3 4 5 6 7 8 9 10 11 12 13 14 15 16 17 18 19 20 21 22 23 24 25 26 27
000
ASUS41 KLWX 271810
RWRLWX

REGIONAL WEATHER ROUNDUP
NATIONAL WEATHER SERVICE BALTIMORE MD/WASHINGTON DC
200 PM EDT FRI MAY 27 2016

Note: "FAIR" indicates few or no clouds below 12,000 feet
with no significant weather and/or obstructions to visibility.
 TC=TEMPERATURE CELSIUS

 * =Non NWS site. Station does not report precipitation (e.g. rain,
    snow, etc.), thunder, or fog.

DCZ001-MDZ009-015-VAZ040>042-051-053>054-271900-
WASHINGTON METRO

CITY           SKY/WX    TMP DP  RH WIND       PRES   REMARKS
WASHINGTON NAT NOT AVBL
DULLES         PTSUNNY   87  66  49 S7        30.06F
ANDREWS AFB    SUNNY     87  67  50 S9        30.06F HX  90
FT BELVOIR     FAIR      87  65  47 SW7       30.06F
QUANTICO       FAIR      85  69  58 S3        30.07F
COLLEGE PARK*  FAIR      88  63  42 SW5       30.05F
LEESBURG*      FAIR      90  70  51 SE3       30.07F HX  95
MANASSAS*      MOSUNNY   88  68  51 S7        30.06F HX  91

$$

MDZ006>007-011-014-271900-
BALTIMORE METRO

CITY           SKY/WX    TMP DP  RH WIND       PRES   REMARKS
BWI AIRPORT    PTSUNNY   89  66  46 SW6       30.05F HX  91
MD SCIENCE CTR   N/A     87  66  49 MISG      30.05F
MARTIN STATE   MOSUNNY   84  73  70 SE15      30.07F HX  91
ANNAPOLIS      SUNNY     78  69  73 SE14      30.07S
FORT MEADE*    MOSUNNY   86  64  48 SW6       30.08F

$$

MDZ012-015-019>023-271900-
MARYLAND EASTERN SHORE

CITY           SKY/WX    TMP DP  RH WIND       PRES   REMARKS
OCEAN CITY     SUNNY     72  64  76 SW12G18   30.12S
SALISBURY      SUNNY     85  67  54 SW12      30.09F
BAY BRIDGE AP* SUNNY     84  68  58 S9        30.07S
CAMBRIDGE*     SUNNY     81  68  65 S9        30.09S
EASTON*        SUNNY     86  72  62 SW5       30.11F HX  92

$$

MDZ017>025-271900-
SOUTHERN MARYLAND

CITY           SKY/WX    TMP DP  RH WIND       PRES   REMARKS
PATUXENT RIVER MOSUNNY   78  67  68 SE12      30.07F
ST INIGOES     SUNNY     85  68  56 SE8       30.07F
LEONARDTOWN*   SUNNY     84  66  54 SW7       30.09F

$$

MDZ003>005-271900-
NORTH CENTRAL MARYLAND

CITY           SKY/WX    TMP DP  RH WIND       PRES   REMARKS
FREDERICK*     SUNNY     88  72  58 SW5       30.08F HX  94
HAGERSTOWN APT CLOUDY    87  63  44 MISG      30.06F
WESTMINSTER*   SUNNY     88  82  84 SW7       30.08S HX 108

$$

MDZ501>502-271900-
WESTERN MARYLAND

CITY           SKY/WX    TMP DP  RH WIND       PRES   REMARKS
OAKLAND*       MOSUNNY   77  57  50 W6        30.18S
CUMBERLAND*    SUNNY     88  63  42 SE3       30.09S

$$

VAZ025>031-271900-
SHENANDOAH VALLEY

CITY           SKY/WX    TMP DP  RH WIND       PRES   REMARKS
WINCHESTER*    FAIR      88  63  42 SE5       30.07F
FRONT ROYAL*   FAIR      86  68  54 E5        30.06F
LURAY*         FAIR      86  66  51 CALM      30.07F
NEW MARKET*    FAIR      88  64  44 CALM      30.05F
STAUNTON*      FAIR      84  64  50 S8        30.11F
WAYNESBORO*    MOCLDY    81  62  53 S5        30.12S

$$

WVZ021-048>050-054>055-271900-
EASTERN WEST VIRGINIA PANHANDLE

CITY           SKY/WX    TMP DP  RH WIND       PRES   REMARKS
MARTINSBURG    FAIR      87  66  49 SE6       30.05F
PETERSBURG*    FAIR      89  66  46 NE3       30.06F HX  92

$$

VAZ036>039-050-271900-
CENTRAL FOOTHILLS

CITY           SKY/WX    TMP DP  RH WIND       PRES   REMARKS
CHARLOTTESVILL FAIR      86  66  51 SE8       30.08F
CULPEPER*      FAIR      88  67  49 S8        30.07F HX  91
ORANGE*        FAIR      88  68  51 SW8       30.09F HX  91
GORDONSVILLE*  FAIR      86  69  57 S5        30.07F HX  90
WARRENTON*     FAIR      90  62  39 S6        30.06F HX  90

$$

VAZ055>057-271900-
NORTH AND CENTRAL PIEDMONT

CITY           SKY/WX    TMP DP  RH WIND       PRES   REMARKS
FREDERICKSBRG* FAIR      90  68  48 S5        30.06S HX  93
STAFFORD*      FAIR      87  66  50 S10       30.10F

$$

NCZ024-NYZ072-PAZ021-071-VAZ022-071-271900-
OTHER REGIONAL OBSERVATIONS

CITY           SKY/WX    TMP DP  RH WIND       PRES   REMARKS
NEW YORK CITY  SUNNY     85  64  49 VRB3      30.07S
PHILADELPHIA   MOSUNNY   88  65  46 SW12      30.05F HX  90
PITTSBURGH     PTSUNNY   84  61  45 S10G18    30.07S
ROANOKE        FAIR      84  56  38 SE9       30.12F
RICHMOND       FAIR      85  66  53 S9        30.08F
RALEIGH        MOSUNNY   85  65  51 S8        30.13F

$$

ANZ530>537-271900-
MARINE OBSERVATIONS

STATION/POSITION TIME  TEMP    WIND        PRES
                       AIR SEA DIR/SP/G
                 (UTC) (F)     (DEG/KT/KT) (MB)
THOMAS PT LIGHT  1800   71 67  180/  9/ 10 1019.6F
BALT KEY BRIDGE  1700   79     110/  9/ 10 1017.8F
COVE POINT       1700   69     180/ 12/ 14 1019.6F
LEWISETTA        1700   75 67   80/  5/  7 1018.5F
SOLOMONS ISLAND  1700   74 67   70/  7/  8   N/A
PINEY POINT      1700          140/  7/  8   N/A

$$





USA.gov is the U.S. government's official web portal to all federal, state and local government web resources and services.